Location: Rounton
(54.4000°N, 1.3500°W)
Time: 07:01:07
(UTC+00:00)

Vanguard 1 - Pass Details

Date: 02 December 2021
Orbit: 652 x 3830 km, 34.2° (Epoch: 16 January)

Event Time Altitude Azimuth Distance (km) Brightness Sun altitude
Rises 04:33:39 0° 264° (W) 7,961 - -29.4°
Reaches altitude 10° 04:40:09 10° 257° (WSW) 6,795 - -28.5°
Exits shadow 04:49:38 25° 237° (WSW) 5,161 13.2 -27.1°
Maximum altitude 04:57:15 32° 205° (SSW) 4,232 13.0 -26.0°
Drops below altitude 10° 05:09:00 10° 149° (SSE) 4,654 13.9 -24.3°
Sets 05:12:28 0° 139° (SE) 5,251 14.5 -23.8°
